STARLINK-11567, 62909

Orbit data source: Space-Track

STARLINK-11567, 62909 is a payload satellite owned by SpaceX/Seattle (US) in LEO that was launched on Sat, 08 Feb 2025 UTC via an FALCON 9 launch vehicle from the Air Force Eastern Test Range (AFETR). Payload-class satellites include a variety of spacecraft equipped with specific instruments for various scientific and technological missions. These include communications satellites like Starlink; space stations such as the ISS; scientific satellites like the Hubble; Earth observation satellites from companies like Planet Labs, Umbra, and HawkEye 360; GPS; miniature CubeSats for education and research; and military/defense satellites.

Loading next visibility...
Identifier
62909, 2025-027C
Orbit
LEO
Country
Flag of USUS
Related business
Manufacturer
SpaceX/Seattle
Mission
Operational Commercial Communications
Bus & Motor
STARLINK V2MD, Unknown motor
Mass
960 kg wet, ~910 kg dry
Launch date (UTC)
2025-02-08 (9 months ago)
Launch vehicle
FALCON 9
Launch site
Air Force Eastern Test Range (AFETR)
Object type
Payload
Rocket body
Debris
Shape & HBR
Box + 2 Pan, 18.1 m
Radar Cross Section
36.964 m², Large (>1 m²)

Expand to show TLE details & history
Last TLE update: 8 hours ago

TLE from 8 hours ago
0 STARLINK-11567
1 62909U 25027C   25300.77079719  .00252221  00000-0  19088-2 0  9991
2 62909  42.9999  69.1967 0003184 250.0362 110.0163 15.70854187 42242
Epoch: 2025-10-27T18:29Z
TLE epoch observation values (Epoch: 2025-10-27T18:29:56.877Z)
Latitude
0.00001°
Longitude
115.34185°
Altitude
356.96 km
Speed
7.696 km/s
True Right ascension
04h 36m 47s
True Declination
0° 00' 00"
Sunlit
Object was in full shadow at epoch
Visualization orbit readout
Latitude
Unknown
Longitude
Unknown
Altitude
Unknown
Speed
Unknown
Apparent Right ascension
Unknown
Apparent Declination
Unknown
Sunlit
N/A
Visualization observer readout
Local Sidereal Time
21:37:45
Azimuth
Unknown
Elevation
Unknown
Doppler factor
Unknown
Orbital elements
Apogee altitude
360.581 km
Perigee altitude
356.291 km
Semi-major axis
6,736.573 km
Eccentricity
0.00032
Inclination
42.9999°
RAAN
69.1967°
Arg. of periapsis
250.0362°
True anomaly
110.05058°
Mean anomaly
110.0163°
Eccentric anomaly
110.03344°
Mean motion
3.92541 °/min
Orbital period
91.71 mins
BSTAR
0.0019088
Loading maneuver chart data...
Computing Atmospheric mass density...
Loading historical data...
Loading historical data...
Loading historical data...
Loading historical data...
Loading historical data...
Loading historical data...
Loading historical data...

Documentation

Showing up to 5 results
|